QPF
0.00 0.00 0.00 0.00 0.00 0.00 0.00 0.00 0.00 0.00 0.00 0.00 0.00 0.00 0.00 0.00 0.00 0.00 0.00 0.00 0.00 0.00 0.00 0.00 0.00 0.00 0.00 0.00 0.00 0.00 0.00 0.00 0.01 0.01 0.01 0.00 0.01 0.00 0.01 0.01 0.01 0.01
0.00 0.00 0.00 0.00 0.00 0.00 0.00 0.00 0.00 0.00 0.00 0.00 0.00 0.00 0.00 0.00 0.00 0.00 0.00 0.00 0.00 0.00 0.00 0.00 0.00 0.00 0.00 0.00 0.00 0.00 0.00 0.00 0.01 0.01 0.01 0.00 0.00 0.00 0.00 0.00 0.01 0.01
0.00 0.00 0.00 0.00 0.00 0.00 0.00 0.00 0.00 0.00 0.00 0.00 0.00 0.00 0.00 0.00 0.00 0.00 0.00 0.00 0.00 0.00 0.00 0.00 0.00 0.00 0.00 0.00 0.00 0.00 0.00 0.00 0.00 0.01 0.00 0.02 0.01 0.00 0.00 0.00 0.01 0.00
0.00 0.00 0.00 0.00 0.00 0.00 0.00 0.00 0.00 0.00 0.00 0.00 0.00 0.00 0.00 0.00 0.00 0.00 0.00 0.00 0.00 0.00 0.00 0.00 0.00 0.00 0.00 0.00 0.00 0.00 0.00 0.00 0.00 0.00 0.00 0.00 0.01 0.02 0.02 0.02 0.01 0.00
0.00 0.00 0.00 0.00 0.00 0.00 0.00 0.00 0.00 0.00 0.00 0.00 0.00 0.00 0.00 0.00 0.00 0.00 0.00 0.00 0.00 0.00 0.00 0.00 0.00 0.00 0.00 0.00 0.00 0.00 0.00 0.00 0.00 0.00 0.00 0.00 0.01 0.01 0.01 0.01 0.01 0.01
0.00 0.00 0.00 0.00 0.00 0.00 0.00 0.00 0.00 0.00 0.00 0.00 0.00 0.00 0.00 0.00 0.00 0.00 0.00 0.00 0.00 0.00 0.00 0.00 0.00 0.00 0.00 0.00 0.00 0.00 0.00 0.00 0.00 0.00 0.00 0.00 0.00 0.00 0.00 0.01 0.01 0.01
0.00 0.00 0.00 0.00 0.00 0.00 0.00 0.00 0.00 0.00 0.00 0.00 0.00 0.00 0.00 0.00 0.00 0.00 0.00 0.00 0.00 0.00 0.00 0.00 0.00 0.00 0.00 0.00 0.00 0.00 0.00 0.00 0.00 0.00 0.00 0.00 0.00 0.00 0.00 0.00 0.01 0.01
0.00 0.00 0.00 0.00 0.00 0.00 0.00 0.00 0.00 0.00 0.00 0.00 0.00 0.00 0.00 0.00 0.00 0.00 0.00 0.00 0.00 0.00 0.00 0.00 0.00 0.00 0.00 0.00 0.00 0.00 0.00 0.00 0.00 0.00 0.00 0.00 0.00 0.00 0.00 0.01 0.01 0.01
0.00 0.00 0.00 0.00 0.00 0.00 0.00 0.00 0.00 0.00 0.00 0.00 0.00 0.00 0.00 0.00 0.00 0.00 0.00 0.00 0.00 0.00 0.00 0.00 0.00 0.00 0.00 0.00 0.00 0.00 0.00 0.00 0.00 0.00 0.00 0.00 0.00 0.00 0.00 0.00 0.01 0.01
0.00 0.00 0.00 0.00 0.00 0.00 0.00 0.00 0.00 0.00 0.00 0.00 0.00 0.00 0.00 0.00 0.00 0.00 0.00 0.00 0.00 0.00 0.00 0.00 0.00 0.00 0.00 0.00 0.00 0.00 0.00 0.00 0.00 0.00 0.00 0.00 0.00 0.00 0.00 0.00 0.01 0.01
0.00 0.00 0.00 0.00 0.00 0.00 0.00 0.00 0.00 0.00 0.00 0.00 0.00 0.00 0.00 0.00 0.00 0.00 0.00 0.00 0.00 0.00 0.00 0.00 0.00 0.00 0.00 0.00 0.00 0.00 0.00 0.00 0.00 0.00 0.00 0.00 0.00 0.00 0.00 0.00 0.00 0.01
0.00 0.00 0.00 0.00 0.00 0.00 0.00 0.00 0.00 0.00 0.00 0.00 0.00 0.00 0.00 0.00 0.00 0.00 0.00 0.00 0.00 0.00 0.00 0.00 0.00 0.00 0.00 0.00 0.00 0.00 0.00 0.00 0.00 0.00 0.00 0.00 0.00 0.00 0.00 0.00 0.00 0.01
0.00 0.00 0.00 0.00 0.00 0.00 0.00 0.00 0.00 0.00 0.00 0.00 0.00 0.00 0.00 0.00 0.00 0.00 0.00 0.00 0.00 0.00 0.00 0.00 0.00 0.00 0.00 0.00 0.00 0.00 0.00 0.00 0.00 0.00 0.00 0.00 0.00 0.00 0.00 0.00 0.00 0.01
0.00 0.00 0.00 0.00 0.00 0.00 0.00 0.00 0.00 0.00 0.00 0.00 0.00 0.00 0.00 0.00 0.00 0.00 0.00 0.00 0.00 0.00 0.00 0.00 0.00 0.00 0.00 0.00 0.00 0.00 0.00 0.00 0.00 0.00 0.00 0.00 0.00 0.00 0.00 0.00 0.00 0.00
0.00 0.00 0.00 0.00 0.00 0.00 0.00 0.00 0.00 0.00 0.00 0.00 0.00 0.00 0.00 0.00 0.00 0.00 0.00 0.00 0.00 0.00 0.00 0.00 0.00 0.00 0.00 0.00 0.00 0.00 0.00 0.00 0.00 0.00 0.00 0.00 0.00 0.00 0.00 0.00 0.00 0.00
0.00 0.00 0.00 0.00 0.00 0.00 0.00 0.00 0.00 0.00 0.00 0.00 0.00 0.00 0.00 0.00 0.00 0.00 0.00 0.00 0.00 0.00 0.00 0.00 0.00 0.00 0.00 0.00 0.00 0.00 0.00 0.00 0.00 0.00 0.00 0.00 0.00 0.00 0.00 0.00 0.00 0.00
0.00 0.00 0.00 0.00 0.00 0.00 0.00 0.00 0.00 0.00 0.00 0.00 0.00 0.00 0.00 0.00 0.00 0.00 0.00 0.00 0.00 0.00 0.00 0.00 0.00 0.00 0.00 0.00 0.00 0.00 0.00 0.00 0.00 0.00 0.00 0.00 0.00 0.00 0.00 0.00 0.00 0.00
0.00 0.00 0.00 0.00 0.00 0.00 0.00 0.00 0.00 0.00 0.00 0.00 0.00 0.00 0.00 0.00 0.00 0.00 0.00 0.00 0.00 0.00 0.00 0.00 0.00 0.00 0.00 0.00 0.00 0.00 0.00 0.00 0.00 0.00 0.00 0.00 0.00 0.00 0.00 0.00 0.00 0.00
0.00 0.00 0.00 0.00 0.00 0.00 0.00 0.00 0.00 0.00 0.00 0.00 0.00 0.00 0.00 0.00 0.00 0.00 0.00 0.00 0.00 0.00 0.00 0.00 0.00 0.00 0.00 0.00 0.00 0.00 0.00 0.00 0.00 0.00 0.00 0.00 0.00 0.00 0.00 0.00 0.00 0.00
0.00 0.00 0.00 0.00 0.00 0.00 0.00 0.00 0.00 0.00 0.00 0.00 0.01 0.00 0.00 0.00 0.00 0.00 0.00 0.00 0.00 0.00 0.00 0.00 0.00 0.00 0.00 0.00 0.00 0.00 0.00 0.00 0.00 0.00 0.00 0.00 0.00 0.00 0.00 0.00 0.00 0.00
0.00 0.00 0.00 0.00 0.00 0.00 0.00 0.00 0.00 0.00 0.00 0.00 0.00 0.00 0.00 0.00 0.00 0.00 0.00 0.00 0.00 0.00 0.00 0.00 0.00 0.00 0.00 0.00 0.00 0.00 0.00 0.00 0.00 0.00 0.00 0.00 0.00 0.00 0.00 0.00 0.00 0.00
0.00 0.00 0.00 0.00 0.00 0.00 0.00 0.00 0.00 0.00 0.00 0.00 0.00 0.03 0.01 0.00 0.00 0.00 0.00 0.00 0.02 0.00 0.00 0.00 0.00 0.00 0.00 0.00 0.00 0.00 0.00 0.00 0.00 0.00 0.00 0.00 0.00 0.00 0.00 0.00 0.00 0.00
0.00 0.00 0.00 0.00 0.00 0.00 0.00 0.00 0.00 0.00 0.00 0.05 0.05 0.00 0.06 0.04 0.00 0.01 0.13 0.01 0.00 0.00 0.00 0.00 0.00 0.00 0.00 0.00 0.00 0.00 0.00 0.00 0.00 0.00 0.00 0.00 0.00 0.00 0.00 0.00 0.00 0.00
0.00 0.00 0.00 0.00 0.00 0.00 0.00 0.00 0.00 0.00 0.02 0.00 0.09 0.10 0.03 0.01 0.08 0.19 0.01 0.00 0.00 0.00 0.00 0.00 0.00 0.00 0.00 0.00 0.00 0.00 0.00 0.00 0.00 0.00 0.00 0.00 0.00 0.00 0.00 0.00 0.00 0.00
0.00 0.00 0.00 0.00 0.00 0.00 0.00 0.00 0.01 0.02 0.13 0.04 0.02 0.06 0.19 0.09 0.09 0.06 0.00 0.00 0.00 0.00 0.00 0.00 0.00 0.00 0.00 0.00 0.00 0.00 0.00 0.00 0.00 0.00 0.00 0.00 0.00 0.00 0.00 0.00 0.00 0.00
0.00 0.00 0.00 0.00 0.00 0.00 0.00 0.01 0.01 0.05 0.02 0.13 0.20 0.06 0.11 0.08 0.15 0.03 0.00 0.00 0.00 0.00 0.00 0.00 0.00 0.00 0.00 0.00 0.00 0.00 0.00 0.00 0.00 0.00 0.00 0.00 0.00 0.00 0.00 0.00 0.00 0.00
MSLP
1015.36 1015.36 1015.48 1015.52 1015.56 1015.56 1015.64 1015.72 1015.68 1015.72 1015.72 1015.64 1015.76 1015.64 1015.60 1015.56 1015.44 1015.48 1015.44 1015.36 1015.32 1015.32 1015.28 1015.20 1015.12 1015.12 1015.04 1014.92 1014.88 1014.88 1014.84 1014.80 1014.80 1014.72 1014.80 1014.84 1014.88 1014.92 1015.00 1014.92 1014.96 1014.96
1015.32 1015.32 1015.32 1015.28 1015.44 1015.44 1015.52 1015.52 1015.52 1015.52 1015.56 1015.68 1015.56 1015.56 1015.48 1015.44 1015.44 1015.40 1015.44 1015.40 1015.24 1015.20 1015.12 1015.12 1015.08 1015.04 1015.04 1014.92 1014.84 1014.92 1014.88 1014.76 1014.84 1014.56 1014.72 1014.80 1014.76 1014.68 1014.80 1014.80 1014.84 1014.76
1015.16 1015.28 1015.40 1015.48 1015.48 1015.52 1015.48 1015.48 1015.56 1015.60 1015.60 1015.52 1015.48 1015.44 1015.40 1015.28 1015.36 1015.24 1015.20 1015.24 1015.16 1015.08 1015.04 1015.04 1015.04 1015.04 1015.00 1015.00 1014.96 1014.96 1014.96 1014.88 1014.88 1014.64 1014.68 1014.68 1014.72 1014.80 1014.76 1014.72 1014.72 1014.68
1015.12 1015.12 1015.12 1015.16 1015.28 1015.36 1015.36 1015.52 1015.52 1015.52 1015.48 1015.52 1015.44 1015.32 1015.28 1015.20 1015.16 1015.12 1015.08 1015.08 1015.12 1015.08 1015.04 1015.04 1015.08 1015.00 1015.00 1014.96 1014.96 1014.92 1014.92 1014.84 1014.76 1014.64 1014.68 1014.60 1014.56 1014.56 1014.64 1014.64 1014.72 1014.72
1014.96 1015.04 1015.00 1015.00 1015.04 1015.20 1015.36 1015.48 1015.48 1015.44 1015.44 1015.40 1015.32 1015.20 1015.16 1015.16 1015.12 1015.00 1015.08 1015.12 1015.12 1015.12 1015.12 1015.16 1015.12 1015.16 1015.08 1015.04 1015.04 1015.08 1015.00 1014.92 1014.84 1014.84 1014.80 1014.76 1014.56 1014.64 1014.60 1014.56 1014.68 1014.72
1014.76 1014.76 1014.84 1014.92 1015.04 1015.24 1015.32 1015.32 1015.36 1015.32 1015.32 1015.32 1015.32 1015.16 1015.16 1015.16 1015.16 1015.16 1015.16 1015.24 1015.16 1015.16 1015.28 1015.28 1015.32 1015.28 1015.20 1015.16 1015.12 1015.20 1015.16 1015.16 1015.04 1014.88 1014.84 1014.80 1014.64 1014.56 1014.56 1014.64 1014.72 1014.72
1014.84 1014.84 1014.96 1014.92 1015.04 1015.12 1015.28 1015.20 1015.20 1015.20 1015.16 1015.12 1015.08 1015.28 1015.16 1015.24 1015.24 1015.24 1015.24 1015.24 1015.28 1015.40 1015.36 1015.48 1015.52 1015.56 1015.40 1015.28 1015.32 1015.44 1015.40 1015.36 1015.20 1015.04 1015.00 1014.96 1014.80 1014.88 1014.80 1014.80 1014.84 1014.76
1014.72 1014.68 1014.80 1014.84 1015.04 1015.08 1015.20 1015.12 1015.08 1015.08 1015.08 1015.16 1015.28 1015.28 1015.16 1015.20 1015.24 1015.24 1015.32 1015.40 1015.48 1015.52 1015.56 1015.60 1015.60 1015.68 1015.60 1015.56 1015.60 1015.60 1015.64 1015.56 1015.48 1015.36 1015.32 1015.28 1015.24 1015.24 1015.12 1015.08 1015.04 1015.04
1014.56 1014.68 1014.76 1014.92 1015.08 1015.08 1015.12 1015.04 1015.00 1015.04 1015.00 1015.20 1015.24 1015.32 1015.20 1015.24 1015.36 1015.40 1015.48 1015.48 1015.60 1015.68 1015.72 1015.80 1015.80 1015.88 1015.84 1015.84 1015.88 1015.84 1015.84 1015.84 1015.76 1015.72 1015.76 1015.68 1015.60 1015.56 1015.44 1015.36 1015.36 1015.32
1014.56 1014.60 1014.76 1014.88 1015.04 1014.96 1015.04 1014.96 1014.92 1015.04 1014.96 1015.08 1015.16 1015.24 1015.44 1015.48 1015.44 1015.48 1015.64 1015.72 1015.80 1015.84 1015.92 1015.96 1015.96 1016.04 1016.12 1016.12 1016.16 1016.12 1016.08 1016.08 1016.00 1016.00 1015.96 1015.92 1015.88 1015.84 1015.76 1015.64 1015.68 1015.72
1014.52 1014.52 1014.72 1014.80 1014.88 1014.76 1014.88 1014.88 1014.92 1014.96 1014.96 1015.08 1015.28 1015.40 1015.48 1015.60 1015.72 1015.68 1015.80 1015.84 1015.96 1015.96 1016.08 1016.08 1016.12 1016.16 1016.28 1016.36 1016.40 1016.40 1016.36 1016.36 1016.32 1016.28 1016.24 1016.20 1016.20 1016.12 1016.04 1015.88 1015.92 1016.04
1014.36 1014.44 1014.56 1014.60 1014.64 1014.68 1014.80 1014.80 1014.84 1014.92 1015.04 1015.08 1015.16 1015.48 1015.60 1015.68 1015.80 1015.80 1015.84 1016.00 1016.04 1016.12 1016.20 1016.24 1016.28 1016.40 1016.44 1016.52 1016.60 1016.60 1016.60 1016.64 1016.60 1016.60 1016.56 1016.48 1016.44 1016.36 1016.24 1016.16 1016.16 1016.24
1014.12 1014.20 1014.24 1014.32 1014.44 1014.52 1014.60 1014.68 1014.76 1014.88 1014.96 1015.16 1015.24 1015.48 1015.68 1015.88 1015.96 1016.04 1016.08 1016.16 1016.32 1016.36 1016.44 1016.52 1016.56 1016.64 1016.72 1016.76 1016.76 1016.80 1016.84 1016.92 1016.92 1016.84 1016.84 1016.84 1016.76 1016.68 1016.64 1016.60 1016.56 1016.60
1013.76 1013.80 1013.96 1014.08 1014.20 1014.36 1014.48 1014.56 1014.68 1014.80 1014.92 1015.12 1015.24 1015.56 1015.72 1015.84 1016.04 1016.24 1016.36 1016.40 1016.60 1016.72 1016.80 1016.80 1016.88 1016.92 1016.92 1016.96 1017.00 1017.08 1017.16 1017.16 1017.16 1017.12 1017.08 1017.04 1017.00 1016.96 1016.92 1016.92 1016.92 1016.96
1013.48 1013.60 1013.76 1013.96 1014.16 1014.28 1014.44 1014.60 1014.64 1014.80 1014.96 1015.12 1015.36 1015.60 1015.76 1015.92 1016.08 1016.24 1016.48 1016.64 1016.80 1016.96 1017.12 1017.28 1017.40 1017.52 1017.64 1017.52 1017.20 1017.24 1017.32 1017.40 1017.40 1017.36 1017.32 1017.28 1017.20 1017.20 1017.16 1017.12 1017.08 1017.24
1013.24 1013.52 1013.68 1013.84 1014.04 1014.20 1014.32 1014.44 1014.64 1014.80 1015.00 1015.24 1015.44 1015.64 1015.84 1016.00 1016.16 1016.32 1016.52 1016.72 1016.96 1017.16 1017.40 1017.56 1017.80 1018.04 1018.48 1018.24 1017.96 1017.60 1017.44 1017.44 1017.48 1017.48 1017.44 1017.40 1017.40 1017.36 1017.36 1017.32 1017.28 1017.32
1013.04 1013.28 1013.40 1013.68 1013.76 1013.92 1014.16 1014.36 1014.56 1014.76 1015.00 1015.24 1015.48 1015.72 1016.00 1016.16 1016.28 1016.48 1016.64 1016.76 1017.00 1017.32 1017.64 1017.84 1018.08 1018.52 1018.84 1018.44 1018.24 1018.08 1017.64 1017.56 1017.56 1017.60 1017.52 1017.52 1017.48 1017.52 1017.52 1017.48 1017.44 1017.44
1012.72 1012.92 1013.16 1013.32 1013.52 1013.76 1014.00 1014.12 1014.44 1014.72 1015.00 1015.32 1015.68 1015.96 1016.08 1016.20 1016.44 1016.64 1016.80 1017.00 1017.16 1017.44 1017.72 1018.00 1018.40 1019.08 1018.92 1018.64 1018.44 1018.28 1018.04 1017.72 1017.64 1017.68 1017.68 1017.60 1017.60 1017.60 1017.56 1017.56 1017.64 1017.68
1012.36 1012.68 1012.84 1013.12 1013.32 1013.48 1013.72 1014.00 1014.32 1014.60 1015.00 1015.40 1015.72 1015.88 1016.12 1016.40 1016.56 1016.80 1017.00 1017.12 1017.28 1017.52 1017.80 1018.04 1018.40 1019.20 1019.04 1018.84 1018.60 1018.44 1018.24 1017.92 1017.76 1017.84 1017.84 1017.88 1017.84 1017.84 1017.84 1017.84 1017.76 1017.76
1012.12 1012.36 1012.60 1012.88 1013.08 1013.32 1013.64 1013.92 1014.20 1014.56 1014.96 1015.24 1015.64 1015.96 1016.20 1016.52 1016.76 1017.00 1017.12 1017.20 1017.36 1017.60 1017.84 1018.12 1018.44 1019.16 1019.24 1019.04 1018.80 1018.64 1018.40 1018.16 1017.84 1017.96 1018.04 1018.04 1018.08 1018.12 1018.08 1018.12 1018.12 1018.04
1011.84 1012.04 1012.40 1012.68 1012.92 1013.28 1013.56 1013.84 1014.12 1014.60 1015.00 1015.32 1015.64 1015.96 1016.32 1016.64 1016.92 1017.12 1017.28 1017.36 1017.44 1017.64 1017.92 1018.24 1018.84 1019.48 1019.40 1019.24 1019.04 1018.80 1018.52 1018.24 1017.96 1018.00 1018.04 1018.16 1018.20 1018.24 1018.24 1018.28 1018.28 1018.24
1011.52 1011.84 1012.16 1012.52 1012.88 1013.20 1013.48 1013.76 1014.20 1014.64 1015.00 1015.28 1015.60 1015.96 1016.24 1016.56 1016.92 1017.24 1017.48 1017.72 1017.84 1017.92 1018.12 1018.36 1019.04 1019.60 1019.52 1019.40 1019.20 1018.92 1018.76 1018.08 1018.00 1018.04 1018.16 1018.20 1018.28 1018.28 1018.24 1018.32 1018.36 1018.36
1011.20 1011.60 1012.04 1012.40 1012.68 1013.08 1013.36 1013.76 1014.24 1014.60 1014.96 1015.24 1015.72 1016.12 1016.48 1016.88 1017.28 1017.64 1018.12 1018.08 1018.04 1018.08 1018.20 1018.40 1018.80 1019.52 1019.60 1019.56 1019.32 1019.08 1018.60 1017.88 1018.00 1017.92 1018.16 1018.28 1018.40 1018.40 1018.48 1018.80 1018.84 1018.72
1010.92 1011.28 1011.88 1012.24 1012.56 1012.92 1013.28 1013.80 1014.12 1014.56 1015.08 1015.40 1015.88 1016.36 1016.80 1017.20 1017.60 1018.20 1018.08 1017.80 1018.08 1018.16 1018.16 1018.36 1018.76 1019.52 1019.80 1019.76 1019.56 1019.28 1018.92 1018.20 1017.80 1017.96 1018.20 1018.24 1018.44 1018.52 1018.64 1019.08 1019.60 1019.80
1010.76 1011.16 1011.68 1012.08 1012.52 1012.88 1013.40 1013.88 1014.32 1014.72 1015.12 1015.48 1015.96 1016.44 1017.04 1017.56 1018.04 1018.28 1017.88 1017.84 1017.92 1018.16 1018.40 1018.48 1018.80 1019.48 1019.92 1019.92 1019.72 1019.48 1019.04 1018.20 1017.92 1017.92 1018.20 1018.20 1018.12 1018.44 1018.52 1018.56 1019.36 1019.88
1011.08 1011.56 1011.96 1012.36 1012.76 1013.40 1013.80 1014.24 1014.72 1015.28 1015.72 1016.08 1016.36 1016.68 1017.20 1017.64 1018.20 1017.84 1017.68 1017.76 1018.00 1018.32 1018.52 1018.52 1018.80 1019.12 1019.84 1020.04 1019.88 1019.60 1019.36 1018.76 1018.16 1018.32 1018.20 1018.28 1018.12 1018.00 1018.16 1018.48 1018.60 1019.32
Thickness
5683 5683 5681 5680 5680 5679 5678 5676 5676 5674 5673 5672 5671 5671 5670 5670 5669 5668 5667 5667 5667 5667 5667 5666 5666 5665 5664 5665 5664 5663 5663 5663 5663 5663 5662 5660 5659 5658 5657 5656 5656 5654
5684 5683 5682 5681 5681 5679 5679 5678 5677 5676 5674 5674 5674 5673 5673 5672 5671 5670 5669 5668 5668 5668 5668 5667 5667 5666 5665 5665 5664 5663 5663 5663 5663 5664 5662 5661 5660 5659 5657 5656 5656 5655
5684 5683 5682 5681 5681 5680 5680 5679 5678 5677 5676 5676 5676 5675 5675 5674 5674 5673 5672 5671 5670 5670 5670 5668 5668 5667 5666 5665 5664 5663 5663 5662 5662 5663 5662 5660 5660 5658 5657 5656 5655 5653
5685 5684 5684 5683 5682 5681 5680 5679 5678 5678 5677 5676 5677 5677 5677 5677 5676 5675 5674 5673 5671 5670 5670 5669 5668 5667 5666 5666 5665 5663 5663 5662 5662 5662 5661 5660 5660 5658 5656 5655 5653 5652
5686 5685 5684 5683 5682 5681 5680 5679 5678 5678 5678 5676 5677 5677 5677 5677 5677 5677 5675 5673 5672 5671 5669 5668 5667 5666 5666 5665 5665 5663 5662 5662 5661 5661 5659 5658 5658 5657 5655 5653 5651 5649
5686 5686 5684 5683 5683 5681 5680 5679 5679 5679 5678 5677 5677 5676 5676 5676 5675 5675 5674 5673 5671 5670 5668 5666 5665 5664 5664 5664 5663 5662 5661 5660 5659 5659 5658 5657 5656 5655 5654 5651 5648 5647
5686 5685 5684 5683 5682 5680 5680 5679 5680 5679 5678 5678 5677 5676 5675 5674 5673 5673 5672 5670 5669 5668 5666 5664 5663 5661 5662 5662 5661 5659 5658 5657 5657 5657 5656 5654 5653 5651 5650 5648 5646 5644
5685 5684 5684 5682 5681 5680 5679 5679 5679 5679 5678 5677 5675 5674 5674 5673 5672 5670 5669 5668 5666 5665 5663 5662 5661 5659 5659 5659 5657 5657 5655 5654 5654 5653 5651 5650 5648 5646 5645 5643 5641 5639
5685 5684 5683 5681 5680 5679 5679 5679 5679 5678 5677 5676 5674 5673 5672 5671 5670 5668 5666 5665 5663 5661 5660 5659 5657 5656 5655 5654 5653 5652 5652 5650 5649 5648 5646 5645 5643 5641 5639 5638 5636 5634
5685 5684 5683 5681 5680 5679 5679 5679 5678 5677 5676 5675 5673 5671 5670 5668 5667 5666 5663 5662 5659 5658 5657 5656 5654 5653 5651 5650 5649 5648 5647 5646 5645 5643 5642 5639 5637 5636 5634 5633 5630 5628
5684 5683 5682 5680 5680 5679 5679 5678 5677 5676 5675 5673 5671 5669 5667 5666 5664 5663 5661 5659 5657 5655 5654 5652 5651 5649 5648 5647 5645 5644 5643 5641 5640 5638 5637 5635 5633 5630 5629 5627 5625 5622
5684 5683 5681 5681 5680 5679 5678 5677 5676 5675 5673 5671 5669 5667 5665 5663 5661 5659 5658 5656 5654 5652 5650 5649 5647 5646 5644 5643 5641 5640 5638 5637 5635 5634 5632 5630 5627 5625 5624 5622 5620 5616
5685 5683 5682 5681 5680 5679 5678 5676 5675 5673 5671 5670 5668 5665 5662 5660 5658 5655 5654 5652 5650 5648 5647 5645 5644 5642 5640 5638 5637 5636 5634 5632 5630 5628 5626 5624 5622 5620 5617 5615 5614 5611
5686 5685 5683 5681 5680 5678 5676 5675 5673 5671 5670 5668 5666 5663 5660 5657 5655 5652 5650 5648 5646 5644 5642 5640 5639 5637 5635 5634 5633 5631 5628 5626 5624 5622 5620 5618 5616 5614 5611 5609 5607 5604
5686 5684 5683 5681 5678 5677 5675 5673 5672 5670 5668 5666 5663 5659 5657 5654 5652 5649 5646 5644 5641 5639 5637 5634 5632 5629 5627 5626 5626 5626 5624 5621 5619 5616 5614 5612 5610 5607 5605 5603 5601 5598
5686 5684 5682 5679 5678 5676 5673 5672 5670 5667 5665 5662 5659 5657 5654 5651 5649 5646 5643 5641 5638 5635 5632 5629 5627 5622 5619 5619 5619 5620 5619 5617 5614 5611 5608 5606 5603 5601 5599 5597 5595 5592
5686 5684 5681 5679 5677 5675 5673 5671 5668 5665 5662 5659 5656 5653 5650 5648 5645 5642 5640 5637 5634 5631 5628 5625 5621 5616 5613 5613 5613 5613 5613 5612 5608 5605 5603 5600 5597 5595 5592 5591 5589 5587
5687 5684 5682 5679 5677 5674 5672 5669 5667 5663 5660 5656 5652 5649 5646 5643 5641 5638 5635 5632 5630 5627 5623 5620 5615 5610 5607 5608 5607 5606 5606 5605 5602 5598 5596 5594 5591 5589 5586 5584 5583 5580
5687 5684 5681 5679 5676 5673 5671 5668 5665 5661 5657 5653 5649 5646 5643 5640 5636 5633 5630 5627 5625 5621 5618 5615 5610 5604 5602 5602 5601 5600 5598 5598 5596 5593 5589 5586 5584 5582 5579 5577 5576 5573
5686 5684 5681 5678 5675 5672 5668 5665 5662 5658 5654 5650 5647 5642 5639 5635 5631 5628 5625 5622 5620 5616 5613 5610 5604 5598 5596 5595 5594 5593 5592 5591 5590 5587 5584 5580 5578 5575 5573 5571 5569 5567
5686 5683 5679 5676 5673 5669 5665 5663 5659 5655 5650 5647 5643 5639 5635 5631 5626 5623 5619 5616 5614 5611 5607 5604 5597 5592 5589 5588 5587 5586 5585 5585 5584 5582 5579 5576 5573 5570 5567 5564 5562 5560
5685 5682 5678 5674 5671 5667 5663 5660 5655 5651 5647 5643 5639 5635 5631 5626 5621 5617 5613 5609 5607 5604 5601 5597 5591 5585 5582 5581 5581 5579 5579 5580 5579 5576 5574 5571 5567 5564 5561 5558 5555 5553
5684 5680 5675 5671 5668 5664 5660 5656 5651 5647 5643 5638 5634 5629 5625 5620 5615 5609 5605 5603 5601 5597 5595 5592 5586 5580 5577 5575 5573 5572 5573 5575 5574 5570 5567 5564 5560 5557 5554 5549 5544 5543
5683 5678 5673 5669 5665 5661 5656 5651 5647 5642 5638 5633 5629 5623 5618 5613 5607 5602 5600 5599 5596 5592 5589 5587 5581 5574 5570 5568 5567 5565 5565 5568 5568 5564 5560 5556 5553 5550 5546 5540 5534 5530
5679 5675 5669 5664 5660 5656 5650 5646 5641 5636 5631 5627 5622 5617 5612 5605 5599 5597 5596 5594 5591 5587 5583 5580 5575 5569 5564 5561 5559 5557 5557 5560 5561 5557 5552 5550 5547 5543 5540 5536 5529 5522
5673 5668 5662 5659 5653 5648 5643 5637 5633 5628 5623 5619 5615 5610 5605 5599 5595 5594 5593 5589 5585 5582 5578 5575 5570 5565 5558 5554 5552 5550 5548 5550 5551 5548 5545 5543 5541 5537 5535 5531 5526 5519